Portada
METAR-TAF:

METAR-TAF

Aeroports :

Shell Mera, Equador

latitud: 01-30-19S, longitud: 078-03-46W, altitud: 1056 m

Observació

L'informe es va fer fa 35 minuts, a les 18:00 UTC
Vent 4 kt del Sud-Est, variant entre Est i Sud-Oest
Temperatura 30°C
Humitat 46%
Pressió 1020 hPa
Visibilitat 10 km o més
Escasses núvols a una alçada de 2600 ft
Núvols disperses a una alçada de 10000 ft

METAR: SESM 241800Z 14004KT 090V220 9999 FEW026 SCT100 30/17 Q1020 RMK A3015

Hora: 13:35 (18:35 UTC)


TAF: manca

Observacions i pronòstics meteorològics de més de 4000 aeroports (METAR i TAF).

Les estacions disponibles són els punts grocs i vermells al mapa.

Posi el ratolí al punt desitjat per veure el nom de l'estació.

Feu clic per veure les observacions i els pronòstics meteorològics.

Per canviar el mapa: feu clic els botons verds amb una creu de color negre per apropar; al botó verd amb un guió per allunyar la imatge; o en les fletxes verdes per a mapes adjacents.


METAR-TAF: